Date String (YYYY-MM-DD hh:mm:ss) UTC,Instrument flags,Ambient pressure (hPa),Sample flow (lpm),Bypass flow (lpm),Sample temperature (°C),Ambient temperature (°C),ASC tube jacket temperature (°C),LED temperature (°C),Box temperature (°C),Sample RH (%),Span deviation,Mass concentration (μg/m³),Mass concentration (μg/m³),Mass concentration (μg/m³)
DateTimeUTC,F1_M11,P_M11,Q1_M11,Q2_M11,T1_M11,T2_M11,T3_M11,T4_M11,T5_M11,U1_M11,ZSPAN_M11,X0_M11,X2_M11,X1_M11
2022-10-12 17:00:00,,0828.2,5.00,0.00,30.3,29.3,00.0,38.8,32.2,15.1,0000.4,0016.38,0006.99,0005.75
2022-10-12 17:01:00,,0828.3,5.00,0.00,30.3,29.3,00.0,38.8,32.3,15.7,0000.9,0016.76,0007.05,0005.75
2022-10-12 17:02:00,,0828.4,4.99,0.00,30.3,29.4,00.0,38.8,32.3,16.1,0001.3,0016.47,0007.08,0005.75
2022-10-12 17:03:00,,0828.3,5.00,0.00,30.4,29.4,00.0,38.9,32.3,15.2,0001.4,0016.14,0007.05,0005.76
2022-10-12 17:04:00,,0828.3,5.00,0.00,30.4,29.4,00.0,38.9,32.3,15.5,0000.9,0016.85,0007.03,0005.76
2022-10-12 17:05:00,,0828.3,4.99,0.00,30.4,29.4,00.0,38.9,32.4,15.5,0001.2,0017.17,0007.03,0005.76
2022-10-12 17:06:00,,0828.3,5.00,0.00,30.5,29.4,00.0,39.0,32.4,14.9,0001.7,0016.53,0007.00,0005.77
2022-10-12 17:07:00,,0828.3,4.98,0.00,30.5,29.5,00.0,39.0,32.4,14.7,0002.3,0016.33,0007.03,0005.76
2022-10-12 17:08:00,,0828.3,4.99,0.00,30.5,29.5,00.0,39.0,32.4,15.3,0002.2,0016.39,0007.03,0005.77
2022-10-12 17:09:00,,0828.4,4.99,0.00,30.5,29.5,00.0,39.0,32.5,15.6,0002.2,0016.66,0007.03,0005.77
2022-10-12 17:10:00,,0828.4,5.00,0.00,30.6,29.5,00.0,39.1,32.5,16.1,0002.2,0018.29,0007.01,0005.77
2022-10-12 17:11:00,,0828.5,4.99,0.00,30.6,29.6,00.0,39.1,32.5,15.7,0001.6,0018.18,0007.01,0005.77
2022-10-12 17:12:00,,0828.5,5.01,0.00,30.6,29.6,00.0,39.1,32.5,15.2,0001.3,0018.42,0007.02,0005.79
2022-10-12 17:13:00,,0828.4,4.99,0.00,30.7,29.6,00.0,39.2,32.6,15.2,0001.0,0019.23,0007.09,0005.81
2022-10-12 17:14:00,,0828.3,5.00,0.00,30.7,29.7,00.0,39.2,32.6,14.9,0000.9,0019.35,0007.13,0005.81
2022-10-12 17:15:00,,0828.3,4.99,0.00,30.7,29.7,00.0,39.2,32.6,15.2,0001.3,0019.94,0007.16,0005.82
2022-10-12 17:16:00,,0828.4,5.00,0.00,30.7,29.7,00.0,39.2,32.6,15.7,0001.5,0020.34,0007.20,0005.83
2022-10-12 17:17:00,,0828.5,5.00,0.00,30.7,29.7,00.0,39.2,32.6,15.5,0001.9,0020.46,0007.22,0005.84
2022-10-12 17:18:00,,0828.5,5.00,0.00,30.7,29.7,00.0,39.3,32.7,14.9,0001.9,0020.18,0007.21,0005.85
2022-10-12 17:19:00,,0828.5,5.00,0.00,30.8,29.7,00.0,39.3,32.7,15.0,0001.8,0019.21,0007.21,0005.86
2022-10-12 17:20:00,,0828.5,5.00,0.00,30.8,29.8,00.0,39.3,32.7,14.9,0001.9,0019.97,0007.28,0005.89
2022-10-12 17:21:00,,0828.5,5.00,0.00,30.8,29.8,00.0,39.3,32.7,15.1,0002.0,0019.86,0007.31,0005.90
2022-10-12 17:22:00,,0828.5,4.99,0.00,30.8,29.8,00.0,39.4,32.7,15.0,0002.0,0019.37,0007.31,0005.93
2022-10-12 17:23:00,,0828.5,4.99,0.00,30.9,29.9,00.0,39.4,32.8,15.2,0002.0,0019.10,0007.30,0005.94
2022-10-12 17:24:00,,0828.5,4.99,0.00,30.9,29.9,00.0,39.4,32.8,15.3,0002.6,0019.56,0007.25,0005.95
2022-10-12 17:25:00,,0828.4,5.01,0.00,30.9,29.9,00.0,39.5,32.8,15.0,0002.8,0019.93,0007.25,0005.96
2022-10-12 17:26:00,,0828.5,5.01,0.00,30.9,30.0,00.0,39.5,32.8,14.7,0002.5,0019.32,0007.27,0005.97
2022-10-12 17:27:00,,0828.4,5.00,0.00,30.9,30.0,00.0,39.5,32.9,14.5,0002.0,0020.16,0007.27,0005.98
2022-10-12 17:28:00,,0828.3,5.01,0.00,31.0,30.0,00.0,39.6,32.9,14.0,0001.8,0019.95,0007.29,0005.99
2022-10-12 17:29:00,,0828.4,4.99,0.00,31.0,30.0,00.0,39.6,32.9,14.5,0001.7,0020.65,0007.35,0006.00
2022-10-12 17:30:00,,0828.5,5.00,0.00,31.0,30.0,00.0,39.6,32.9,14.9,0002.2,0021.11,0007.38,0006.01
2022-10-12 17:31:00,,0828.5,5.00,0.00,31.0,29.9,00.0,39.6,32.9,15.0,0002.4,0021.99,0007.37,0006.01
2022-10-12 17:32:00,,0828.5,5.01,0.00,30.9,29.5,00.0,39.6,32.7,15.0,0002.4,0021.34,0007.33,0006.04
2022-10-12 17:33:00,,0828.5,5.01,0.00,30.9,29.5,00.0,39.6,32.7,15.1,0002.3,0021.50,0007.40,0006.08
2022-10-12 17:34:00,,0828.4,4.99,0.00,30.9,29.5,00.0,39.6,32.7,14.5,0002.3,0021.29,0007.42,0006.10
2022-10-12 17:35:00,,0828.5,4.98,0.00,30.9,29.6,00.0,39.7,32.8,14.3,0002.2,0021.03,0007.44,0006.12
2022-10-12 17:36:00,,0828.5,5.01,0.00,31.0,29.7,00.0,39.7,32.8,15.2,0002.1,0019.75,0007.48,0006.13
2022-10-12 17:37:00,,0828.5,5.00,0.00,31.0,29.7,00.0,39.7,32.8,15.1,0002.2,0019.82,0007.50,0006.15
2022-10-12 17:38:00,,0828.6,4.99,0.00,31.0,29.8,00.0,39.7,32.9,14.9,0002.2,0019.50,0007.57,0006.18
2022-10-12 17:39:00,,0828.6,5.01,0.00,31.0,29.8,00.0,39.7,32.9,15.0,0002.5,0019.22,0007.59,0006.21
2022-10-12 17:40:00,,0828.5,4.99,0.00,31.0,29.8,00.0,39.7,32.9,15.2,0002.3,0019.37,0007.59,0006.24
2022-10-12 17:41:00,,0828.5,5.00,0.00,31.0,29.9,00.0,39.7,32.9,15.3,0002.2,0020.25,0007.64,0006.27
2022-10-12 17:42:00,,0828.5,5.00,0.00,31.1,29.9,00.0,39.7,32.9,14.9,0002.2,0020.41,0007.69,0006.30
2022-10-12 17:43:00,,0828.5,5.01,0.00,31.1,29.9,00.0,39.8,32.9,14.5,0002.2,0020.28,0007.79,0006.32
2022-10-12 17:44:00,,0828.4,5.00,0.00,31.1,29.9,00.0,39.8,33.0,14.7,0001.9,0020.80,0007.83,0006.32
2022-10-12 17:45:00,,0828.5,5.00,0.00,31.1,29.9,00.0,39.8,33.0,14.4,0002.3,0021.65,0007.86,0006.34
2022-10-12 17:46:00,,0828.4,5.00,0.00,31.1,29.1,00.0,39.8,33.0,14.4,0002.2,0022.11,0007.91,0006.37
2022-10-12 17:47:00,,0828.4,5.01,0.00,31.1,27.9,00.0,39.7,32.8,14.2,0002.2,0022.62,0007.93,0006.40
2022-10-12 17:48:00,,0828.3,5.00,0.00,31.0,27.6,00.0,39.7,32.7,14.5,0002.2,0022.61,0007.97,0006.44
2022-10-12 17:49:00,,0828.3,4.99,0.00,31.0,27.8,00.0,39.6,32.5,15.2,0002.2,0022.47,0008.00,0006.45
2022-10-12 17:50:00,,0828.3,5.01,0.00,30.9,28.1,00.0,39.6,32.5,15.2,0001.7,0022.10,0008.05,0006.47
2022-10-12 17:51:00,,0828.3,4.99,0.00,30.8,28.3,00.0,39.6,32.4,15.4,0001.6,0021.57,0008.08,0006.51
2022-10-12 17:52:00,,0828.3,5.01,0.00,30.8,28.6,00.0,39.6,32.4,15.6,0001.7,0020.54,0008.09,0006.53
2022-10-12 17:53:00,,0828.4,5.01,0.00,30.8,28.8,00.0,39.6,32.4,15.4,0001.7,0019.98,0008.15,0006.54
2022-10-12 17:54:00,,0828.3,5.01,0.00,30.7,28.9,00.0,39.5,32.5,14.2,0001.2,0018.74,0008.13,0006.56
2022-10-12 17:55:00,,0828.4,5.00,0.00,30.7,29.0,00.0,39.5,32.4,14.2,0001.0,0019.39,0008.16,0006.59
2022-10-12 17:56:00,,0828.4,4.99,0.00,30.7,29.1,00.0,39.5,32.5,14.4,0000.6,0019.53,0008.17,0006.61
2022-10-12 17:57:00,,0828.4,4.99,0.00,30.7,29.2,00.0,39.5,32.5,14.4,0000.6,0019.84,0008.21,0006.63
2022-10-12 17:58:00,,0828.4,4.99,0.00,30.7,29.3,00.0,39.5,32.5,14.5,0000.3,0019.37,0008.21,0006.66
2022-10-12 17:59:00,,0828.4,5.00,0.00,30.7,29.3,00.0,39.5,32.6,14.2,0000.2,0019.36,0008.22,0006.69
